#timestamp,LO_Frequency,Hit,StdDev 
1679428815.5,286047000.6,N
1679428835.3,286046998.5,N
1679428855.1,286047000.4,N
1679428875.9,286046999.9,N
1679428895.7,286047001.0,N
1679428915.5,286046998.3,N
1679428935.4,286046999.8,N
1679428955.2,286047000.0,N
1679428975.1,286046998.1,N
1679428976.0,286046998.1,N
1679428995.8,286046999.5,N
1679429015.6,286046998.9,N
1679429035.5,286046999.1,N
1679429055.3,286046998.4,N
1679429075.2,286047000.4,N
1679429095.9,286046998.7,N
1679429115.7,286046999.3,N
1679429135.6,286047000.9,N
1679429155.4,286046998.2,N
1679429175.3,286047000.7,N
1679429195.1,286047000.3,N
1679429196.0,286047000.3,N
1679429215.8,286046998.3,N
1679429235.7,286047000.9,N
1679429255.5,286047000.7,N
1679429275.3,286047000.1,N
1679429295.2,286047000.7,N
1679429315.0,286046998.3,N
1679429315.9,286046998.3,N
1679429335.8,286046998.2,N
1679429355.6,286047000.4,N
1679429375.4,286047002.8,N
1679429395.3,286047000.6,N
1679429415.1,286047000.5,N
1679429435.8,286046998.6,N
1679429455.7,286047000.0,N
1679429475.5,286046998.2,N
1679429495.4,286046998.7,N
1679429515.2,286047000.5,N
1679429535.0,286047001.4,N
1679429535.9,286047001.4,N
1679429555.8,286047000.7,N
1679429575.6,286046998.4,N
1679429595.4,286046998.9,N
1679429615.3,286046998.2,N
1679429635.1,286047000.5,N
1679429655.9,286047001.2,N
1679429675.7,286047001.9,N
1679429695.5,286047004.2,Y
1679429715.4,286047001.5,P
1679429735.2,286047003.8,P
1679429755.1,286047004.1,N
1679429756.0,286047004.1,N
1679429775.8,286047002.6,N
1679429795.6,286047004.3,N
1679429815.5,286047002.4,N
1679429835.3,286046998.8,N
1679429855.1,286046996.5,N
1679429875.9,286046998.8,N
1679429895.7,286046999.0,N
1679429915.6,286046998.9,N
1679429935.4,286047001.0,N
1679429955.2,286047002.0,N
1679429975.1,286046998.2,N
1679429976.0,286046998.2,N
1679429995.8,286046998.3,N
1679430015.7,286046999.1,N
1679430035.5,286046996.6,N
1679430055.3,286046999.0,N
1679430075.2,286046998.4,N
1679430095.0,286046998.2,N
1679430095.9,286046998.2,N
1679430115.8,286047000.1,N
1679430135.6,286047000.5,N
1679430155.4,286047001.1,N
1679430175.3,286047001.0,N
1679430195.1,286046998.9,N
1679430215.8,286046999.3,N
1679430235.7,286046998.7,N
1679430255.5,286046999.8,N
1679430275.4,286047000.5,N
1679430295.2,286046998.3,N
1679430315.0,286046999.1,N
1679430315.9,286046999.1,N
1679430335.8,286046999.6,N
1679430355.6,286046996.9,N
1679430375.4,286046998.9,N
1679430395.3,286047001.2,N
1679430415.1,286046998.1,N
1679430435.9,286046998.2,N
1679430455.7,286046998.9,N
1679430475.5,286046998.2,N
1679430495.4,286047000.7,N
1679430515.2,286047000.4,N
1679430535.1,286047001.1,N
1679430536.0,286047001.1,N
1679430555.8,286046999.0,N
1679430575.6,286046999.3,N
1679430595.5,286047000.8,N
1679430615.3,286047000.7,N
1679430635.1,286046999.4,N
1679430655.9,286046999.4,N
1679430675.7,286046996.9,N
1679430695.6,286046996.9,N
1679430715.4,286046997.3,N
1679430735.2,286046997.6,N
1679430755.1,286046999.2,N
1679430756.0,286046999.2,N
1679430775.8,286047001.2,N
1679430795.6,286046998.7,N
1679430815.5,286046998.6,N
1679430835.3,286046999.2,N
1679430855.2,286046997.7,N
1679430875.9,286046998.5,N
1679430895.7,286046999.0,N
1679430915.6,286046998.8,N
1679430935.4,286047000.8,N
1679430955.3,286047001.1,N
1679430975.1,286046998.2,N
1679430976.0,286046998.2,N
1679430995.8,286046998.7,N
1679431015.7,286046998.8,N
1679431035.6,286047000.9,N
1679431055.4,286047000.2,N
1679431075.2,286047002.5,N
1679431095.1,286047001.6,N
1679431096.0,286047001.6,N
1679431115.8,286047004.3,N
1679431135.7,286047002.2,N
1679431155.5,286047000.3,N
1679431175.3,286047000.1,N
1679431195.2,286046999.9,N
1679431215.0,286047002.1,N
1679431215.9,286047002.1,N
1679431235.8,286047005.6,Y
1679431255.6,286047007.2,P
1679431275.4,286047005.5,N
1679431295.3,286047002.9,N
1679431315.1,286047003.4,N
1679431335.8,286047002.7,N
1679431355.7,286047000.9,N
1679431375.5,286047000.9,N
1679431395.4,286047002.4,N
1679431415.2,286047002.1,N
1679431435.0,286047002.3,N
1679431435.9,286047002.3,N
1679431455.8,286047001.7,N
1679431475.6,286047003.7,N
1679431495.4,286047004.3,N
1679431515.3,286047001.7,N
1679431535.1,286047002.0,N
1679431555.9,286047002.1,N
1679431575.7,286047000.1,N
1679431595.5,286047000.7,N
1679431615.4,286047000.7,N
1679431635.2,286047000.6,N
1679431655.0,286047000.0,N
1679431656.0,286047000.0,N
1679431675.8,286047004.4,N
1679431695.6,286047001.9,N
1679431715.5,286047000.1,N
1679431735.3,286046999.8,N
1679431755.1,286047000.8,N
1679431775.9,286046999.0,N
1679431795.7,286047001.1,N
1679431815.6,286047000.3,N
1679431835.4,286046999.5,N
1679431855.2,286046999.2,N
1679431875.1,286046999.1,N
1679431876.0,286046999.1,N
1679431895.8,286046999.2,N
1679431915.7,286046998.5,N
1679431935.5,286046998.4,N
1679431955.3,286046996.7,N
1679431975.2,286046999.6,N
1679431995.0,286046998.3,N
1679431995.9,286046998.3,N
1679432015.7,286046999.3,N
1679432035.6,286046998.7,N
1679432055.4,286046998.7,N
1679432075.3,286047002.6,N
1679432095.1,286047001.4,N
1679432096.0,286047001.4,N
1679432115.8,286047001.3,N
1679432135.7,286047002.7,N
1679432155.5,286047000.3,N
1679432175.3,286047000.2,N
1679432195.2,286047004.4,N
1679432215.0,286047000.0,N
1679432215.9,286047000.0,N
1679432235.8,286047002.7,N
1679432255.6,286047000.7,N
1679432275.4,286046999.0,N
1679432295.3,286047000.2,N
1679432315.1,286047002.3,N
1679432335.8,286046998.5,N
1679432355.7,286047000.6,N
1679432375.5,286046998.7,N
1679432395.4,286046998.8,N
